目前日期文章:201601 (135)

瀏覽方式: 標題列表 簡短摘要
發表時間 文章標題 人氣 留言
2016-01-30 MOMO購物網 【SEIKO 精工】LUKIA 20周年紀念款花漾太陽能計時腕錶(V175-0CZ0S SSC857J1) (2) (0)
2016-01-30 MOMO購物網 【TISSOT】Lady Heart 花朵鏤空機械腕錶-珍珠貝x玫瑰金框(T0502073711704) (0) (0)
2016-01-30 天貓購物商城NUK嬰兒圓頭長柄矽膠軟調羹nuk軟勺( 2只裝) - 37380861912 (0) (0)
2016-01-30 MOMO購物網 【SEIKO】Kinetic 關鍵時刻經典腕錶-銀x咖啡-44mm(5M82-0AJ0S) (0) (0)
2016-01-30 天貓購物商城快速雙核制冷19L升車家兩用車載冰箱 冷暖迷你便攜式制冷藏恒溫箱 - 45463729365 (0) (0)
2016-01-29 天貓購物商城嬰幼兒童滑行車寶寶學步車四輪溜溜車可坐騎行車助步車扭扭車童車 - 43161731822 (0) (0)
2016-01-29 天貓購物商城環球夏秋新品純色經典帆布鞋男 時尚魔術貼韓版百搭學生高幫鞋 潮 - 520128239953 (0) (0)
2016-01-29 天貓購物商城大白衛衣英雄聯盟夜光衛衣加絨情侶裝青少年學生外套冬裝開衫男 - 41195309415 (0) (0)
2016-01-29 天貓購物商城海康威視200萬無線wifi監控攝像頭 1080P網絡攝像機 可插卡 防水 - 523053540869 (0) (0)
2016-01-29 天貓購物商城麥丹堡 實木床 1.8雙人婚床1.5高箱床橡木床現代中式簡約臥室家具 - 42517756536 (0) (0)
2016-01-27 天貓購物商城Fisher-Price費雪三輪車帶車鬥兒童腳踏車自行車手推車童車 - 43968941451 (0) (0)
2016-01-27 天貓購物商城GNN秋冬季上新款長袖襯衫男韓版修身潮流薄款 刺繡大碼商務襯衣男 - 521242844387 (0) (0)
2016-01-27 天貓購物商城寶寶輔食 方廣小小饅頭罐裝蛋黃味+核桃味+牛奶味92g-3盒 - 525569736044 (0) (0)
2016-01-27 天貓購物商城澳洲咪咪-MeiMei進口嬰兒爽身粉液體爽身粉新生兒童嬰兒寶寶用品 - 14361288795 (0) (0)
2016-01-27 天貓購物商城GXG男裝 2016春季商場同款 都市時尚男士橘色休閑夾克#61221070 - 525541460022 (0) (0)
2016-01-26 天貓購物商城孕婦哺乳秋衣秋褲大碼秋冬托腹美體上衣薄套裝月子服喂奶保暖內衣 - 41568674416 (0) (0)
2016-01-26 天貓購物商城前置天線改裝 福特經典福克斯 福睿斯 翼博 嘉年華汽車鯊魚鰭天線 - 44930727838 (0) (0)
2016-01-26 天貓購物商城邁騰 明銳 途觀 A6L Q5 A4L 寶馬120 320 X1 火花塞 雙鉑金 博世 - 37643835670 (0) (0)
2016-01-26 天貓購物商城童裝兒童羽絨服薄款2015秋冬新款男童輕薄羽絨服中大童羽絨服連帽 - 521465899123 (0) (0)
2016-01-26 天貓購物商城童裝-男童 輕型WARM PADDED連帽外套 151166 優衣庫UNIQLO - 524392258298 (0) (0)
2016-01-26 天貓購物商城博世鉑金火花塞凱越樂風科魯茲英朗新君威君越GL8賽歐景程邁銳寶 - 522995920417 (0) (0)
2016-01-26 天貓購物商城如熙2015秋冬季新款長靴真皮女靴中跟圓頭粗跟羊皮女鞋加絨靴子 - 524783499424 (0) (0)
2016-01-26 天貓購物商城福特新蒙迪歐福睿斯尾翼 福瑞斯改裝專用免打孔臥壓式烤漆定風翼 - 520925878751 (0) (0)
2016-01-26 天貓購物商城安之伴夾棉睡衣男冬季 珊瑚絨 加厚新款長袖情侶家居服女保暖套裝 - 522541075873 (0) (0)
2016-01-26 天貓購物商城博世雙鉑金火花塞高爾夫6寶來速騰朗逸POLO途安晶銳明銳FR7HPP33+ - 523031471065 (0) (0)
2016-01-25 天貓購物商城金三塔秋季桑蠶絲有鋼圈防下垂透氣薄杯哺乳文胸 孕期內衣文胸罩 - 43680498528 (0) (0)
2016-01-25 天貓購物商城先用後買 好奇金裝紙尿褲貼身舒適箱裝好奇紙尿片 大號L129片 - 19281233401 (0) (0)
2016-01-25 天貓購物商城比美高法拉利Laferrari車模1-18仿真合金原廠跑車汽車模型 禮品男 - 44342303623 (0) (0)
2016-01-25 天貓購物商城人本童鞋寶寶棉鞋兒童鞋女童男童居家鞋新款2015秋冬家居鞋學步鞋 - 524913108877 (0) (0)
2016-01-25 天貓購物商城【半價秒殺】荷蘭Mama&bebe 閃電ISOFIX-舒適型 - 41721329352 (0) (0)
2016-01-24 天貓購物商城伊威餅幹嬰兒餅幹全機能寶寶核桃消化餅幹寶寶零食嬰幼兒輔食餅幹 - 39814318170 (0) (0)
2016-01-24 天貓購物商城New Balance NB童鞋男女複古鞋兒童運動鞋學步鞋FS620NVI-PVI-GRI - 43876448040 (0) (0)
2016-01-24 天貓購物商城月星機能鞋冬季短靴 女孩靴子小學生 中童兒童男女寶雪地靴側拉鏈 - 521051944459 (0) (0)
2016-01-24 天貓購物商城米寶兔腳踏鋼琴健身架 多功能寶寶嬰兒健身器新生嬰兒玩具0-1歲 - 45529296801 (0) (0)
2016-01-24 天貓購物商城WELEDA-維蕾德純天然杏仁面霜面部保濕乳 舒緩滋養 親膚易吸收 - 523055713539 (0) (0)
2016-01-23 天貓購物商城巴布豆童鞋春秋款兒童帆布鞋男童板鞋寶寶休閑低幫布鞋女童鞋子潮 - 45840750546 (0) (0)
2016-01-23 天貓購物商城2015中腰韓版春秋新款品牌童裝女童打底褲加絨加厚中大全棉長褲子 - 42152872287 (0) (0)
2016-01-23 天貓購物商城Gap簡潔風格系帶休閑鞋嬰兒693076 - 521322140685 (0) (0)
2016-01-23 天貓購物商城六甲村孕婦托腹帶產前產後兩用托腹帶保胎帶孕婦腰帶透氣正品 - 16451410816 (0) (0)
2016-01-23 天貓購物商城Baby Safe防護用品 套裝2相 安全插座保護蓋 防與姴遄o蓋2相 - 36950000143 (0) (0)
2016-01-22 天貓購物商城2016新款男士運動套裝春秋翻領運動服長袖韓版男休閑跑步衫套裝潮 - 520953419703 (0) (0)
2016-01-22 天貓購物商城Adidas阿迪達斯雙肩背包男女包2015夏新款書包M67882 W58466 - 520925894365 (0) (0)
2016-01-22 天貓購物商城925銀耳環紫水晶蝴蝶氣倭魈K銀耳墜女款耳飾防過敏 耳環長款女 - 38274537976 (0) (0)
2016-01-22 天貓購物商城AJ2015男裝秋新品時尚修身格子男士休閑小西裝英倫西服單西外套 - 521104967141 (0) (0)
2016-01-22 天貓購物商城Hansca漢斯卡 秋冬季韓版牛仔外套男 牛仔夾克大碼寬松複古牛仔衣 - 40631083992 (0) (0)
2016-01-20 天貓購物商城【阿里年貨】幫寶適寶寶拉拉褲超薄幹爽XL72-2男女通用官方旗艦店 - 522557092157 (0) (0)
2016-01-20 天貓購物商城2015孕婦裝秋冬裝套頭毛衣大碼中長款外套韓版寬松上衣打底衫中領 - 523838350217 (0) (0)
2016-01-20 天貓購物商城Andy Warhol安迪沃霍爾瑪莉蓮圖案 bugaboo donkey遮陽篷手提袋 - 43775886586 (0) (0)
2016-01-20 天貓購物商城britax-寶得適 嬰幼兒背帶-背袋 透氣 出生-約2歲 包郵 - 15631919275 (0) (0)
2016-01-20 天貓購物商城【天貓超市】噯呵嬰兒草本抗菌洗衣皂尿布皂120gx3兒童尿布皂強生 - 520170360206 (0) (0)
1 23
找更多相關文章與討論